K5HAS Weather Reports


Display with metric or nautical units.
time (UTC)temp
F
wind
direction
speed
MPH
gust
MPH
rain 1hr
in
rain 24hr
in
rain mn
in
humidity
%
barometer
mb
20260831004408 86 169 9.0 16.0 0.00 0.00 0.00 78 1011.8
20260831003847 87 90 8.0 18.0 0.00 0.00 0.00 77 1011.8
20260831002825 87 128 8.0 17.0 0.00 0.00 0.00 75 1011.6
20260831001804 88 149 9.0 16.0 0.00 0.00 0.00 74 1011.6
20260831001534 88 132 9.0 18.0 0.00 0.00 0.00 74 1011.6
20260831000744 88 165 10.0 18.0 0.00 0.00 0.00 74 1011.6
20260831000241 89 152 9.0 16.0 0.00 0.00 0.00 72 1011.6
20260830235729 89 139 8.0 15.0 0.00 0.00 0.00 71 1011.4
20260830235227 89 145 9.0 17.0 0.00 0.00 0.00 71 1011.4
20260830234729 90 123 10.0 17.0 0.00 0.00 0.00 70 1011.4
20260830234451 90 90 10.0 17.0 0.00 0.00 0.00 69 1011.4
20260830233726 90 148 9.0 17.0 0.00 0.00 0.00 69 1011.4
20260830233225 91 90 10.0 18.0 0.00 0.00 0.00 68 1011.4
20260830232723 91 174 10.0 18.0 0.00 0.00 0.00 67 1011.4
20260830232224 91 90 10.0 19.0 0.00 0.00 0.00 67 1011.4
20260830231725 91 124 12.0 19.0 0.00 0.00 0.00 66 1011.4
20260830231223 92 90 12.0 21.0 0.00 0.00 0.00 68 1011.5
20260830230723 92 156 11.0 21.0 0.00 0.00 0.00 68 1011.5
20260830230225 92 137 10.0 17.0 0.00 0.00 0.00 67 1011.5
20260830225715 92 128 10.0 18.0 0.00 0.00 0.00 68 1011.6
20260830225216 93 164 10.0 19.0 0.00 0.00 0.00 67 1011.6
20260830224215 93 90 12.0 20.0 0.00 0.00 0.00 65 1011.4
20260830223713 93 133 12.0 20.0 0.00 0.00 0.00 65 1011.4
20260830223213 93 90 12.0 20.0 0.00 0.00 0.00 63 1011.4
20260830222933 93 90 12.0 23.0 0.00 0.00 0.00 63 1011.4
20260830222432 93 179 13.0 23.0 0.00 0.00 0.00 63 1011.4
20260830221938 93 155 13.0 22.0 0.00 0.00 0.00 63 1011.4
20260830221214 94 172 13.0 22.0 0.00 0.00 0.00 62 1011.4
20260830220210 94 151 12.0 22.0 0.00 0.00 0.00 62 1011.4
20260830215704 94 147 14.0 21.0 0.00 0.00 0.00 61 1011.4
20260830215159 95 90 13.0 22.0 0.00 0.00 0.00 62 1011.4
20260830214646 96 170 11.0 19.0 0.00 0.00 0.00 60 1011.4
20260830214139 96 90 12.0 22.0 0.00 0.00 0.00 59 1011.6
20260830213637 96 165 11.0 22.0 0.00 0.00 0.00 57 1011.6
20260830213137 96 166 9.0 16.0 0.00 0.00 0.00 56 1011.6
20260830212633 96 157 11.0 18.0 0.00 0.00 0.00 55 1011.9
20260830212133 96 155 11.0 18.0 0.00 0.00 0.00 54 1011.9
20260830211639 96 168 10.0 19.0 0.00 0.00 0.00 55 1011.9
20260830211134 96 118 11.0 19.0 0.00 0.00 0.00 55 1011.9
20260830210634 96 90 11.0 21.0 0.00 0.00 0.00 53 1011.9
20260830210134 97 172 11.0 22.0 0.00 0.00 0.00 53 1011.9
20260830205633 97 80 11.0 22.0 0.00 0.00 0.00 54 1012.1
20260830205132 97 159 10.0 17.0 0.00 0.00 0.00 53 1012.1
20260830204620 97 215 9.0 17.0 0.00 0.00 0.00 52 1012.1
20260830204104 98 112 9.0 19.0 0.00 0.00 0.00 54 1012.4
20260830203548 97 134 10.0 19.0 0.00 0.00 0.00 53 1012.4
20260830203045 97 134 10.0 16.0 0.00 0.00 0.00 52 1012.4
20260830202551 97 90 9.0 16.0 0.00 0.00 0.00 53 1012.4
20260830202045 98 186 9.0 16.0 0.00 0.00 0.00 53 1012.4
20260830201546 97 127 9.0 19.0 0.00 0.00 0.00 52 1012.4
20260830201317 97 153 10.0 22.0 0.00 0.00 0.00 53 1012.5
20260830200544 98 207 10.0 22.0 0.00 0.00 0.00 53 1012.5
20260830200045 98 168 7.0 16.0 0.00 0.00 0.00 51 1012.5
20260830195043 98 152 7.0 16.0 0.00 0.00 0.00 52 1012.6
20260830194536 98 164 7.0 16.0 0.00 0.00 0.00 52 1012.6
20260830194026 98 144 7.0 16.0 0.00 0.00 0.00 52 1012.8
20260830193516 98 156 8.0 16.0 0.00 0.00 0.00 50 1012.8
20260830193002 98 124 8.0 13.0 0.00 0.00 0.00 53 1012.9
20260830192454 98 132 8.0 14.0 0.00 0.00 0.00 53 1012.9
20260830192218 98 90 7.0 18.0 0.00 0.00 0.00 51 1012.9
20260830191456 98 90 7.0 18.0 0.00 0.00 0.00 50 1013.3
20260830190955 98 149 8.0 18.0 0.00 0.00 0.00 50 1013.3
20260830190455 98 153 7.0 18.0 0.00 0.00 0.00 50 1013.3
20260830185955 98 90 6.0 12.0 0.00 0.00 0.00 51 1013.4
20260830185501 97 107 7.0 13.0 0.00 0.00 0.00 51 1013.4
20260830185213 97 160 6.0 13.0 0.00 0.00 0.00 51 1013.4
20260830184454 96 168 5.0 11.0 0.00 0.00 0.00 53 1013.4
20260830184216 95 118 5.0 11.0 0.00 0.00 0.00 56 1013.4
20260830183454 95 153 4.0 10.0 0.00 0.00 0.00 61 1013.4
20260830182451 95 274 6.0 9.0 0.00 0.00 0.00 63 1013.7
20260830182207 95 243 5.0 9.0 0.00 0.00 0.00 63 1013.7
20260830181430 95 269 3.0 9.0 0.00 0.00 0.00 59 1014.0
20260830180919 94 43 3.0 8.0 0.00 0.00 0.00 64 1014.0
20260830180417 94 262 4.0 8.0 0.00 0.00 0.00 63 1014.0
20260830175908 94 289 3.0 7.0 0.00 0.00 0.00 65 1014.5
20260830175638 94 244 2.0 5.0 0.00 0.00 0.00 65 1014.5
20260830174409 93 32 3.0 5.0 0.00 0.00 0.00 64 1014.7
20260830173904 93 57 4.0 5.0 0.00 0.00 0.00 65 1014.7
20260830173409 93 343 3.0 5.0 0.00 0.00 0.00 67 1014.7
20260830172904 92 274 3.0 6.0 0.00 0.00 0.00 67 1014.9
20260830172413 91 257 3.0 7.0 0.00 0.00 0.00 70 1014.9
20260830171904 91 259 3.0 7.0 0.00 0.00 0.00 69 1014.9
20260830171404 92 254 4.0 7.0 0.00 0.00 0.00 67 1015.0
20260830170902 92 255 4.0 7.0 0.00 0.00 0.00 68 1015.0
20260830170404 92 253 4.0 4.0 0.00 0.00 0.00 69 1015.0
20260830165120 91 236 3.0 6.0 0.00 0.00 0.00 70 1015.1
20260830164621 91 223 4.0 6.0 0.00 0.00 0.00 71 1015.1
20260830164344 91 229 4.0 6.0 0.00 0.00 0.00 71 1015.3
20260830163619 90 220 4.0 7.0 0.00 0.00 0.00 72 1015.3
20260830163110 90 213 4.0 7.0 0.00 0.00 0.00 74 1015.3
20260830162608 90 216 5.0 8.0 0.00 0.00 0.00 74 1015.3
20260830162109 89 226 5.0 8.0 0.00 0.00 0.00 76 1015.3
20260830161621 89 232 4.0 7.0 0.00 0.00 0.00 76 1015.3
20260830161110 89 253 5.0 8.0 0.00 0.00 0.00 76 1015.2
20260830160609 88 234 5.0 8.0 0.00 0.00 0.00 77 1015.2
20260830160107 89 236 4.0 8.0 0.00 0.00 0.00 77 1015.2
20260830155609 89 230 4.0 8.0 0.00 0.00 0.00 76 1015.2
20260830155056 89 252 3.0 8.0 0.00 0.00 0.00 75 1015.2
20260830154555 90 259 4.0 8.0 0.00 0.00 0.00 76 1015.2
20260830154308 89 253 4.0 8.0 0.00 0.00 0.00 77 1015.3
20260830153539 88 295 3.0 6.0 0.00 0.00 0.00 77 1015.3
20260830153029 88 275 2.0 6.0 0.00 0.00 0.00 79 1015.3
20260830152519 88 252 3.0 5.0 0.00 0.00 0.00 79 1015.3
20260830152234 88 255 2.0 5.0 0.00 0.00 0.00 80 1015.3
20260830151505 87 223 3.0 6.0 0.00 0.00 0.00 80 1015.3
20260830151224 87 220 3.0 6.0 0.00 0.00 0.00 80 1015.2
20260830150504 87 164 1.0 4.0 0.00 0.00 0.00 80 1015.2
20260830150224 87 145 1.0 3.0 0.00 0.00 0.00 80 1015.2
20260830145728 87 132 0.0 3.0 0.00 0.00 0.00 81 1015.1
20260830145004 87 132 0.0 3.0 0.00 0.00 0.00 81 1015.1
20260830144502 87 129 1.0 4.0 0.00 0.00 0.00 83 1015.1
20260830144000 86 129 1.0 4.0 0.00 0.00 0.00 83 1015.2
20260830143506 86 112 1.0 4.0 0.00 0.00 0.00 84 1015.2
20260830143219 85 112 1.0 4.0 0.00 0.00 0.00 85 1015.2
20260830142501 84 61 1.0 4.0 0.00 0.00 0.00 87 1015.1
20260830142001 84 64 1.0 3.0 0.00 0.00 0.00 87 1015.1
20260830141455 83 64 1.0 4.0 0.00 0.00 0.00 88 1015.0
20260830140940 82 64 1.0 4.0 0.00 0.00 0.00 89 1015.0
20260830140430 81 61 0.0 0.0 0.00 0.00 0.00 90 1015.0
20260830135925 80 57 0.0 0.0 0.00 0.00 0.00 90 1014.9
20260830135415 79 56 0.0 0.0 0.00 0.00 0.00 91 1014.9
20260830134908 78 56 0.0 0.0 0.00 0.00 0.00 92 1014.9
20260830134402 78 56 0.0 0.0 0.00 0.00 0.00 92 1014.9
20260830133845 77 56 0.0 0.0 0.00 0.00 0.00 92 1014.9
20260830132838 77 56 1.0 5.0 0.00 0.00 0.00 93 1014.7
20260830132328 76 57 2.0 5.0 0.00 0.00 0.00 93 1014.7
20260830131831 76 56 2.0 5.0 0.00 0.00 0.00 93 1014.7
20260830131329 76 56 2.0 5.0 0.00 0.00 0.00 93 1014.5
20260830130825 76 58 2.0 4.0 0.00 0.00 0.00 93 1014.5
20260830130325 76 58 2.0 4.0 0.00 0.00 0.00 93 1014.5
20260830125821 75 59 3.0 4.0 0.00 0.00 0.00 92 1014.5
20260830125322 75 60 3.0 4.0 0.00 0.00 0.00 92 1014.5
20260830124822 75 64 2.0 4.0 0.00 0.00 0.00 92 1014.5
20260830124319 75 65 2.0 4.0 0.00 0.00 0.00 92 1014.3
20260830123819 75 70 2.0 4.0 0.00 0.00 0.00 92 1014.3
20260830123316 76 85 1.0 4.0 0.00 0.00 0.00 93 1014.3
20260830122819 76 90 0.0 3.0 0.00 0.00 0.00 93 1014.0
20260830122306 76 95 0.0 3.0 0.00 0.00 0.00 93 1014.0
20260830121752 75 95 0.0 3.0 0.00 0.00 0.00 93 1014.0
20260830121241 75 95 1.0 3.0 0.00 0.00 0.00 93 1014.0
20260830120742 75 95 1.0 3.0 0.00 0.00 0.00 93 1014.0
20260830120240 75 95 2.0 3.0 0.00 0.00 0.00 92 1014.0
20260830115740 75 95 2.0 3.0 0.00 0.00 0.00 92 1013.8
20260830115504 75 95 3.0 4.0 0.00 0.00 0.00 92 1013.8
20260830114741 75 99 2.0 4.0 0.00 0.00 0.00 92 1013.8
20260830114240 75 100 0.0 4.0 0.00 0.00 0.00 92 1013.8
20260830113740 76 122 0.0 0.0 0.00 0.00 0.00 92 1013.8
20260830113230 76 122 0.0 0.0 0.00 0.00 0.00 92 1013.8
20260830112719 76 131 0.0 0.0 0.00 0.00 0.00 93 1013.9
20260830112213 76 131 0.0 0.0 0.00 0.00 0.00 93 1013.9
20260830111704 76 131 0.0 0.0 0.00 0.00 0.00 92 1013.9
20260830111153 75 131 0.0 0.0 0.00 0.00 0.00 92 1013.9
20260830110644 75 131 0.0 0.0 0.00 0.00 0.00 92 1013.9
20260830110134 75 131 0.0 0.0 0.00 0.00 0.00 92 1013.9
20260830105628 75 131 0.0 0.0 0.00 0.00 0.00 92 1013.9
20260830105118 75 132 0.0 0.0 0.00 0.00 0.00 92 1013.9
20260830104617 75 132 0.0 0.0 0.00 0.00 0.00 91 1013.9
20260830104115 75 137 0.0 0.0 0.00 0.00 0.00 90 1013.9
20260830103614 76 137 0.0 0.0 0.00 0.00 0.00 91 1013.9
20260830103111 76 137 0.0 0.0 0.00 0.00 0.00 90 1013.9
20260830102609 76 137 0.0 0.0 0.00 0.00 0.00 90 1013.8
20260830102106 76 137 0.0 0.0 0.00 0.00 0.00 91 1013.8
20260830101826 76 137 0.0 0.0 0.00 0.00 0.00 91 1013.8
20260830101104 76 137 0.0 0.0 0.00 0.00 0.00 90 1013.8
20260830100609 76 137 0.0 0.0 0.00 0.00 0.00 91 1013.8
20260830100059 76 137 0.0 0.0 0.00 0.00 0.00 91 1013.8
20260830095559 76 138 0.0 0.0 0.00 0.00 0.00 90 1013.6
20260830095100 76 139 0.0 0.0 0.00 0.00 0.00 91 1013.6
20260830094816 76 139 0.0 0.0 0.00 0.00 0.00 91 1013.6
20260830094056 76 139 0.0 0.0 0.00 0.00 0.00 92 1013.8
20260830093552 76 139 0.0 0.0 0.00 0.00 0.00 92 1013.8
20260830093043 76 139 0.0 0.0 0.00 0.00 0.00 92 1013.8
20260830092537 76 139 0.0 0.0 0.00 0.00 0.00 91 1013.6
20260830092032 76 139 0.0 0.0 0.00 0.00 0.00 91 1013.6
20260830091736 76 139 0.0 0.0 0.00 0.00 0.00 91 1013.6
20260830091242 76 139 0.0 0.0 0.00 0.00 0.00 90 1013.7
20260830090506 77 143 1.0 3.0 0.00 0.00 0.00 91 1013.7
20260830090001 77 143 2.0 3.0 0.00 0.00 0.00 91 1013.7
20260830085459 77 143 2.0 4.0 0.00 0.00 0.00 92 1013.7
20260830084956 77 143 2.0 4.0 0.00 0.00 0.00 91 1013.7
20260830084457 77 149 2.0 3.0 0.00 0.00 0.00 91 1013.7
20260830083956 77 149 2.0 4.0 0.00 0.00 0.00 91 1013.6
20260830083455 77 150 2.0 4.0 0.00 0.00 0.00 91 1013.6
20260830082954 77 150 2.0 4.0 0.00 0.00 0.00 91 1013.5
20260830082453 76 158 1.0 4.0 0.00 0.00 0.00 91 1013.5
20260830081953 76 159 0.0 2.0 0.00 0.00 0.00 91 1013.5
20260830081717 76 159 0.0 0.0 0.00 0.00 0.00 91 1013.6
20260830080953 76 159 0.0 3.0 0.00 0.00 0.00 90 1013.6
20260830080444 76 159 0.0 3.0 0.00 0.00 0.00 91 1013.6
20260830075944 76 159 1.0 3.0 0.00 0.00 0.00 91 1013.7
20260830075444 76 159 1.0 3.0 0.00 0.00 0.00 91 1013.7
20260830075206 76 159 2.0 3.0 0.00 0.00 0.00 91 1013.7
20260830074708 77 159 2.0 3.0 0.00 0.00 0.00 90 1013.9
20260830074213 77 159 3.0 6.0 0.00 0.00 0.00 90 1013.9
20260830073443 77 158 3.0 6.0 0.00 0.00 0.00 90 1013.9
20260830072941 77 155 4.0 6.0 0.00 0.00 0.00 90 1013.8
20260830072430 77 154 4.0 6.0 0.00 0.00 0.00 90 1013.8
20260830071928 77 147 4.0 8.0 0.00 0.00 0.00 90 1013.8
20260830071429 77 157 5.0 8.0 0.00 0.00 0.00 91 1013.7
20260830070926 77 159 5.0 8.0 0.00 0.00 0.00 91 1013.7
20260830070423 77 153 5.0 8.0 0.00 0.00 0.00 91 1013.7
20260830070156 76 156 5.0 8.0 0.00 0.00 0.00 91 1013.7
20260830065420 76 153 5.0 8.0 0.00 0.00 0.00 92 1013.7
20260830064920 76 144 5.0 7.0 0.00 0.00 0.00 91 1013.7
20260830064420 76 164 4.0 7.0 0.00 0.00 0.00 90 1014.0
20260830063920 76 157 4.0 7.0 0.00 0.00 0.00 90 1014.0
20260830063421 77 147 3.0 5.0 0.00 0.00 0.00 91 1014.0
20260830062917 77 143 3.0 5.0 0.00 0.00 0.00 91 1014.0
20260830062418 76 137 3.0 4.0 0.00 0.00 0.00 91 1014.0
20260830061913 76 154 3.0 5.0 0.00 0.00 0.00 91 1014.0
20260830061405 77 154 3.0 5.0 0.00 0.00 0.00 90 1014.0
20260830061137 77 151 3.0 5.0 0.00 0.00 0.00 90 1014.0
20260830060347 77 151 3.0 5.0 0.00 0.00 0.00 91 1014.0
20260830055841 77 155 3.0 5.0 0.00 0.00 0.00 91 1014.0
20260830055335 77 155 3.0 5.0 0.00 0.00 0.00 90 1014.0
20260830054820 77 153 4.0 5.0 0.00 0.00 0.00 90 1014.0
20260830054315 77 157 4.0 5.0 0.00 0.00 0.00 90 1014.0
20260830053805 77 152 3.0 5.0 0.00 0.00 0.00 89 1014.0
20260830052754 78 149 3.0 5.0 0.00 0.00 0.00 89 1014.0
20260830052238 78 147 3.0 5.0 0.00 0.00 0.00 90 1014.0
20260830051733 78 149 3.0 5.0 0.00 0.00 0.00 89 1014.0
20260830051223 78 147 3.0 5.0 0.00 0.00 0.00 90 1014.0
20260830050708 78 148 3.0 5.0 0.00 0.00 0.00 90 1014.0
20260830050158 78 152 3.0 5.0 0.00 0.00 0.00 90 1014.0
20260830045653 78 145 3.0 7.0 0.00 0.00 0.00 90 1014.0
20260830045153 78 155 4.0 7.0 0.00 0.00 0.00 90 1014.0
20260830044919 77 151 5.0 7.0 0.00 0.00 0.00 90 1014.0
20260830044154 77 90 4.0 7.0 0.00 0.00 0.00 90 1014.1
20260830043654 78 160 4.0 7.0 0.00 0.00 0.00 90 1014.1
20260830043154 78 152 3.0 5.0 0.00 0.00 0.00 89 1014.1
20260830042653 78 149 3.0 5.0 0.00 0.00 0.00 89 1014.4
20260830042412 78 143 2.0 4.0 0.00 0.00 0.00 89 1014.4
20260830041154 79 142 3.0 5.0 0.00 0.00 0.00 89 1014.2
20260830040654 79 142 3.0 5.0 0.00 0.00 0.00 89 1014.2
20260830040154 79 143 4.0 8.0 0.00 0.00 0.00 89 1014.2
20260830035650 79 152 4.0 8.0 0.00 0.00 0.00 88 1014.0
20260830035129 79 149 4.0 8.0 0.00 0.00 0.00 88 1014.0
20260830034619 79 143 5.0 8.0 0.00 0.00 0.00 88 1014.0
20260830034114 80 90 5.0 8.0 0.00 0.00 0.00 88 1014.0
20260830033606 80 90 4.0 7.0 0.00 0.00 0.00 88 1014.0
20260830032606 80 140 4.0 7.0 0.00 0.00 0.00 88 1014.0
20260830032111 80 157 4.0 7.0 0.00 0.00 0.00 88 1014.0
20260830031607 80 151 4.0 7.0 0.00 0.00 0.00 88 1014.0
20260830030604 80 147 4.0 7.0 0.00 0.00 0.00 88 1013.9
20260830030105 80 158 5.0 7.0 0.00 0.00 0.00 88 1013.9
20260830025603 80 150 4.0 7.0 0.00 0.00 0.00 88 1013.6
20260830025104 80 155 4.0 5.0 0.00 0.00 0.00 88 1013.6
20260830024604 80 155 4.0 5.0 0.00 0.00 0.00 88 1013.6
20260830024105 80 161 4.0 5.0 0.00 0.00 0.00 88 1013.4
20260830023601 80 165 4.0 6.0 0.00 0.00 0.00 88 1013.4
20260830023052 80 167 4.0 7.0 0.00 0.00 0.00 87 1013.4
20260830022545 81 165 4.0 7.0 0.00 0.00 0.00 87 1013.1
20260830022308 81 162 4.0 7.0 0.00 0.00 0.00 87 1013.1
20260830021747 81 165 5.0 8.0 0.00 0.00 0.00 87 1013.1
20260830021244 81 90 5.0 8.0 0.00 0.00 0.00 86 1012.9
20260830020512 82 161 5.0 8.0 0.00 0.00 0.00 86 1012.9
20260830015955 82 164 4.0 8.0 0.00 0.00 0.00 85 1012.8
20260830015709 82 161 5.0 9.0 0.00 0.00 0.00 85 1012.8
20260830015204 83 167 5.0 9.0 0.00 0.00 0.00 84 1012.8
20260830014440 83 164 6.0 10.0 0.00 0.00 0.00 84 1012.6
20260830014206 83 164 6.0 10.0 0.00 0.00 0.00 84 1012.6
20260830012938 83 90 6.0 10.0 0.00 0.00 0.00 83 1012.4
20260830012657 83 160 6.0 11.0 0.00 0.00 0.00 82 1012.4
20260830012202 84 161 7.0 11.0 0.00 0.00 0.00 82 1012.4
20260830011438 84 165 6.0 11.0 0.00 0.00 0.00 82 1012.4
20260830010937 84 159 6.0 11.0 0.00 0.00 0.00 81 1012.4
20260830010434 84 169 7.0 12.0 0.00 0.00 0.00 80 1012.4
20260830005934 85 90 7.0 12.0 0.00 0.00 0.00 80 1012.2
20260830005705 85 165 7.0 13.0 0.00 0.00 0.00 79 1012.2
20260830004934 85 161 8.0 13.0 0.00 0.00 0.00 79 1012.2
20260830004657 86 90 9.0 15.0 0.00 0.00 0.00 79 1012.1